www.pogodaiklimat.ru

Погода и климат >> Архив погоды >> Россия >> Архангельская область >> Калгачиха


ПОГОДА в Калгачихе

  • Прогноз погоды в Калгачихе
  • Монитор погоды в Калгачихе

АРХИВ ПОГОДЫ в Калгачихе

Время (UTC), дата Ветер
(напр.,м/с)
 
Видим.   Явления Облачность Т
(С)
Тd
(С)
f
(%)
Тe
(С)
Тes
(С)
Комфортность P
(гПа)
Po
(гПа)
Тmin
(С)
Tmax
(С)
R
(мм)
R24
(мм)
S
(см)
00 15.09 СЗ 6 н/о н/о +6.8 +6.4 97 +2 +2 1003.4 981.3
03 15.09 СЗ 6 н/о н/о +6.2 +4.7 90 +1 +1 1004.9 982.7
06 15.09 СЗ 5 н/о н/о +6.8 +4.3 84 +3 +3 1003.4 981.3
09 15.09 СЗ 5 н/о н/о +9.4 +2.7 63 +6 +6 1003.2 981.3
12 15.09 З 4 н/о н/о +11.2 +1.2 50 +9 +9 1000.4 978.7
15 15.09 ЮЗ 2 н/о н/о +9.6 +2.7 62 +8 +8 997.7 976.0
18 15.09 Ю 2 н/о н/о +3.9 +3.2 95 +1 +1 995.4 973.3
21 15.09 В 1 н/о н/о +0.2 +0.3 101 -2 -2 991.7 969.3
00 16.09 ЮВ 2 н/о н/о +2.6 +2.6 100 -1 -1 988.8 966.7
03 16.09 СВ 1 н/о н/о +3.2 +3.1 99 +1 +1 987.3 965.3
06 16.09 В 2 н/о н/о +6.1 +5.2 94 +4 +4 985.7 964.0
09 16.09 В 3 н/о н/о +8.0 +3.7 74 +5 +5 985.6 964.0
12 16.09 СВ 3 н/о н/о +9.8 +4.2 68 +8 +8 986.8 965.3
15 16.09 СВ 2 н/о н/о +9.5 +2.1 60 +8 +8 986.8 965.3
18 16.09 С 2 н/о н/о +7.1 +6.0 93 +5 +5 988.4 966.7
21 16.09 С 3 н/о н/о +6.8 +7.1 102 +3 +4 988.4 966.7
00 17.09 С 2 н/о н/о +5.6 +5.6 100 +3 +3 988.5 966.7
03 17.09 С 3 н/о н/о +5.9 +6.2 102 +2 989.8 968.0
06 17.09 С 4 н/о н/о +7.1 +7.4 102 +3 +3 989.7 968.0
12 17.09 С 5 н/о н/о +8.0 +8.0 100 +4 +4 991.3 969.7
15 17.09 С 5 н/о н/о +7.3 +7.3 100 +3 +3 993.8 972.0
18 17.09 С 4 н/о н/о +5.8 +5.9 101 +2 +2 995.3 973.3
21 17.09 СВ 3 н/о н/о +5.2 +5.3 101 +1 +1 996.7 974.7
00 18.09 С 4 н/о н/о +4.9 +5.0 101 0 998.1 976.0
03 18.09 С 4 н/о н/о +3.9 +3.8 99 -1 -1 999.5 977.3
06 18.09 СВ 3 н/о н/о +5.3 +4.6 95 +2 +2 1000.8 978.7
09 18.09 С 4 н/о н/о +4.8 +3.9 94 0 1002.2 980.0
12 18.09 С 5 н/о н/о +4.6 +3.4 92 -0 1005.0 982.7
15 18.09 СВ 2 н/о н/о +3.8 +2.2 89 +1 +1 1005.1 982.7
18 18.09 штиль 0 н/о н/о -0.6 -0.6 100 -2 -2 1006.8 984.0
21 18.09 СЗ 2 н/о н/о -0.7 -0.3 103 -5 -5 1008.1 985.3
00 19.09 С 2 н/о н/о -0.2 +0.2 103 -4 -4 1008.1 985.3
03 19.09 С 1 н/о н/о -2.0 -1.5 104 -5 -4 1008.2 985.3
06 19.09 С 3 н/о н/о +2.0 +2.6 104 -3 -3 1009.3 986.7
09 19.09 С 3 н/о н/о +5.1 +3.1 87 +2 +2 1010.4 988.0
12 19.09 С 3 н/о н/о +5.8 +2.1 77 +3 +3 1010.3 988.0
15 19.09 С 2 н/о н/о +3.1 +1.9 92 -0 1011.9 989.3
18 19.09 Ю 1 н/о н/о -0.5 -0.2 102 -3 -3 1012.2 989.3
21 19.09 ЮЗ 1 н/о н/о -2.0 -1.6 103 -5 -4 1011.0 988.0
00 20.09 СЗ 1 н/о н/о -0.8 -0.7 101 -3 -3 1010.9 988.0
03 20.09 З 2 н/о н/о -0.7 -0.6 101 -5 -5 1009.5 986.7
06 20.09 З 3 н/о н/о +0.1 +0.2 101 -5 -5 1009.5 986.7
09 20.09 З 4 н/о н/о +5.5 +0.7 71 +2 +2 1009.0 986.7
12 20.09 СЗ 5 н/о н/о +5.4 -0.6 65 +1 +1 1009.0 986.7
15 20.09 З 4 н/о н/о +3.0 +1.5 90 -2 -2 1007.8 985.3
18 20.09 З 2 н/о н/о +1.5 +1.1 97 -2 -2 1007.9 985.3
21 20.09 З 2 н/о н/о +2.4 +0.9 90 -1 -1 1006.3 983.9
00 21.09 З 3 н/о н/о +2.8 +1.3 90 -1 1007.8 985.3
03 21.09 З 3 н/о н/о +0.9 +0.5 97 -4 -4 1006.6 984.0
06 21.09 З 3 н/о н/о +2.2 +1.2 93 -2 1006.5 984.0
09 21.09 СЗ 4 н/о н/о +6.2 +1.7 73 +3 +3 1006.2 984.0
12 21.09 СЗ 4 н/о н/о +4.7 +1.0 77 +1 1006.3 984.0
15 21.09 Ю 1 н/о н/о +2.4 +1.8 96 +1 1005.2 982.7
18 21.09 СЗ 1 н/о н/о 0.0 +0.3 102 -2 1003.9 981.3
21 21.09 С 2 н/о н/о +0.8 +1.2 103 -3 1003.9 981.3

 

Местоположение метеостанции Калгачиха (Архангельская область, Россия): широта 63.33 долгота 36.70 высота над уровнем моря 183 м.

В архиве по умолчанию представлена погода в Калгачихе за последнюю неделю. Архивные данные за месяц целиком и за предыдущие месяцы, начиная с января 2011 года, Вы можете получить, выбрав интересующий диапазон дат из раскрывающегося списка и нажав кнопку "Ввод!".


*Определитесь, кто Вы:
робот инопланетянин человек

Внимание! Время в таблицах - всемирное. Для получения местного времени необходимо прибавить поправку, которая равна 3 ч.

Смотрите также архив погоды в соседних городах и на ближайших метеорологических станциях:

Погода в Онеге (Архангельская область, Россия) (95 км)
Погода в Колежме (Карелия, Россия) (108 км)
Погода в Медвежьегорске (Карелия, Россия) (123 км)
Погода в Турчасово (Архангельская область, Россия) (129 км)
Погода в Сегеже (Карелия, Россия) (129 км)
Погода в Разнаволоке (Карелия, Россия) (162 км)
Погода в Паданах (Карелия, Россия) (164 км)
Погода в Пудоже (Карелия, Россия) (170 км)
Погода в Кондопоге (Карелия, Россия) (178 км)
Погода в Маячном (Карелия, Россия) (184 км)

Пояснения к столбцам:

Ветер - указаны скорость ветра в м/с - средняя за 10 мин, порывы в срок и между сроками (в фигурных скобках) и направление, откуда дует ветер: С - северный, СВ - северо-восточный, В - восточный, ЮВ - юго-восточный, Ю - южный, ЮЗ - юго-западный, З - западный, СЗ - северо-западный.
Видимость - горизонтальная дальность видимости в метрах или километрах. При видимости от 1 до 10 км при отсутствии осадков обычно наблюдается дымка, при ухудшении видимости до 1 км и менее - туман. В сухую погоду видимость может ухудшаться дымом, пылью или мглою.
Явления - указаны атмосферные явления, наблюдавшиеся в срок или в последний час перед сроком; фигурными скобками обозначены явления, наблюдавшиеся между сроками (за 1-3 часа до срока); квадратными скобками обозначены град или гололедные отложения с указанием их диаметра в мм.
Облачность - указаны через наклонную черту общая и нижняя облачность в баллах и высота нижней границы облаков в метрах; квадратными скобками обозначены формы облаков: Ci - перистые, Cs - перисто-слоистые, Cc - перисто-кучевые, Ac - высококучевые, As - высокослоистые, Sc - слоисто-кучевые, Ns - слоисто-дождевые, Cu - кучевые, Cb - кучево-дождевые. Подробнее классификацию облаков см. в Атласе облаков (PDF).
T - Температура воздуха - температура, измеренная на высоте 2 м над землей.
Td - Температура точки росы - температура, при понижении до которой содержащийся в воздухе водяной пар достигнет насыщения.
f - Относительная влажность воздуха - влажноcть воздуха, измеренная на высоте 2 м над землей.
Te - Эффективная температура - температура, которую ощущает одетый по сезону человек в тени. Характеристика душности погоды. При расчете учитывается влияние влажности воздуха и скорости ветра на теплоощущения человека.
Tes - Эффективная температура на солнце - температура, которую ощущает человек, с поправкой на солнечный нагрев. Характеристика знойности погоды. Зависит от высоты солнца над горизонтом, облачности и скорости ветра. Ночью, в пасмурную погоду, а также при ветре 12 м/с и более поправка равна нулю.
P - Атмосферное давление - приведенное к уровню моря атмосферное давление.
Po - Атмосферное давление - измеренное на уровне метеостанции атмосферное давление.
Tmin - Минимальная температура - минимум температуры воздуха на высоте 2 м над землей.
Tmax - Максимальная температура - максимум температуры воздуха на высоте 2 м над землей.
R - Количество осадков - Количество выпавших осадков за период времени, мм. При наведении курсора мыши на число - период времени, за который выпало указанное количество осадков.
R24 - Количество осадков - Количество выпавших осадков за 24 часа, мм.
S - Снежный покров - Высота снежного покрова, см. При наведении курсора мыши на число - состояние снежного покрова и степень покрытия местности в баллах.